QFA14D EGFF-EICK

Flight info

Callsign QFA14D
Flight time 0h 52m
Altitude 22000
Route BCN P4 FELCA DCT NICXI DCT OFSOX DCT BANBA DCT VAPAL VAPAL1G
Aircraft DH8D/M-SDE2E3FGRY/H

Departure

Time 2026-04-29 19:48
Airport Cardiff International Airport (EGFF)

Arrival

Time 2026-04-29 20:41
Airport Cork International Airport (EICK)
Time Latitude Longitude Altitude Speed Heading
2026-04-29 19:37 51.39682 -3.33604 219 ft 0 kts 263°
2026-04-29 19:43 51.39679 -3.33637 219 ft 11 kts 263°
2026-04-29 19:43 51.39700 -3.33831 222 ft 24 kts 295°
2026-04-29 19:43 51.39764 -3.34038 221 ft 17 kts 300°
2026-04-29 19:44 51.39813 -3.34208 221 ft 19 kts 294°
2026-04-29 19:44 51.39878 -3.34430 223 ft 24 kts 292°
2026-04-29 19:44 51.39956 -3.34691 223 ft 27 kts 303°
2026-04-29 19:44 51.40049 -3.34974 217 ft 27 kts 297°
2026-04-29 19:45 51.40125 -3.35211 209 ft 20 kts 297°
2026-04-29 19:45 51.40151 -3.35392 207 ft 12 kts 256°
2026-04-29 19:45 51.40120 -3.35451 208 ft 0 kts 198°
2026-04-29 19:46 51.40115 -3.35454 208 ft 5 kts 204°
2026-04-29 19:46 51.40019 -3.35510 209 ft 14 kts 139°
2026-04-29 19:46 51.39999 -3.35435 210 ft 0 kts 112°
2026-04-29 19:47 51.39899 -3.35060 218 ft 71 kts 116°
2026-04-29 19:47 51.39592 -3.34080 228 ft 119 kts 112°
2026-04-29 19:48 51.39164 -3.32832 410 ft 141 kts 114°
2026-04-29 19:48 51.38810 -3.31884 573 ft 156 kts 115°
2026-04-29 19:48 51.38021 -3.29785 743 ft 173 kts 114°
2026-04-29 19:48 51.37478 -3.28039 930 ft 179 kts 109°
2026-04-29 19:49 51.36978 -3.26209 1240 ft 178 kts 109°
2026-04-29 19:49 51.36489 -3.24487 1881 ft 157 kts 109°
2026-04-29 19:49 51.36058 -3.22988 2303 ft 151 kts 109°
2026-04-29 19:49 51.35635 -3.21489 2674 ft 146 kts 109°
2026-04-29 19:50 51.35416 -3.19918 2967 ft 145 kts 94°
2026-04-29 19:50 51.35542 -3.18325 3235 ft 150 kts 81°
2026-04-29 19:50 51.36006 -3.16769 3482 ft 159 kts 65°
2026-04-29 19:50 51.36782 -3.15436 3756 ft 169 kts 50°
2026-04-29 19:51 51.37812 -3.14445 3987 ft 182 kts 35°
2026-04-29 19:51 51.39064 -3.13906 4267 ft 192 kts 21°
2026-04-29 19:51 51.40410 -3.13724 4536 ft 198 kts 12°
2026-04-29 19:51 51.41823 -3.13778 4814 ft 202 kts
2026-04-29 19:52 51.43221 -3.13993 5093 ft 205 kts
2026-04-29 19:52 51.44649 -3.14326 5358 ft 208 kts
2026-04-29 19:52 51.46074 -3.14745 5649 ft 210 kts 358°
2026-04-29 19:52 51.47506 -3.15227 5907 ft 213 kts 356°
2026-04-29 19:53 51.48962 -3.15768 6186 ft 213 kts 355°
2026-04-29 19:53 51.50406 -3.16335 6428 ft 214 kts 354°
2026-04-29 19:53 51.51848 -3.16927 6664 ft 216 kts 353°
2026-04-29 19:53 51.53303 -3.17544 6982 ft 216 kts 353°
2026-04-29 19:54 51.56230 -3.18820 7545 ft 218 kts 352°
2026-04-29 19:54 51.57693 -3.19471 7792 ft 221 kts 352°
2026-04-29 19:54 51.59182 -3.20140 8059 ft 222 kts 352°
2026-04-29 19:55 51.60654 -3.20806 8344 ft 221 kts 352°
2026-04-29 19:55 51.62150 -3.21484 8571 ft 224 kts 351°
2026-04-29 19:55 51.63637 -3.22161 8812 ft 225 kts 351°
2026-04-29 19:55 51.65156 -3.22857 9081 ft 226 kts 351°
2026-04-29 19:56 51.66652 -3.23542 9332 ft 226 kts 351°
2026-04-29 19:56 51.68171 -3.24239 9549 ft 228 kts 351°
2026-04-29 19:56 51.69701 -3.24944 9829 ft 227 kts 351°
2026-04-29 19:56 51.71230 -3.25649 10041 ft 230 kts 350°
2026-04-29 19:57 51.72661 -3.26798 10239 ft 239 kts 319°
2026-04-29 19:57 51.73342 -3.28207 10359 ft 242 kts 303°
2026-04-29 19:57 51.74470 -3.31332 10674 ft 243 kts 301°
2026-04-29 19:57 51.75313 -3.33695 10880 ft 245 kts 301°
2026-04-29 19:58 51.76168 -3.36087 11159 ft 244 kts 300°
2026-04-29 19:58 51.77008 -3.38431 11373 ft 246 kts 301°
2026-04-29 19:58 51.77869 -3.40831 11602 ft 247 kts 300°
2026-04-29 19:58 51.78723 -3.43207 11855 ft 246 kts 300°
2026-04-29 19:59 51.79581 -3.45595 12059 ft 248 kts 300°
2026-04-29 19:59 51.80457 -3.48029 12293 ft 250 kts 300°
2026-04-29 19:59 51.81325 -3.50443 12540 ft 249 kts 300°
2026-04-29 19:59 51.82199 -3.52886 12759 ft 251 kts 298°
2026-04-29 20:00 51.82815 -3.55494 12971 ft 250 kts 281°
2026-04-29 20:00 51.83172 -3.58226 13236 ft 248 kts 278°
2026-04-29 20:00 51.83512 -3.60932 13436 ft 251 kts 279°
2026-04-29 20:00 51.83859 -3.63684 13678 ft 250 kts 278°
2026-04-29 20:01 51.84211 -3.66461 13911 ft 251 kts 278°
2026-04-29 20:01 51.84563 -3.69218 14151 ft 251 kts 277°
2026-04-29 20:01 51.84913 -3.71964 14376 ft 251 kts 278°
2026-04-29 20:01 51.85266 -3.74727 14576 ft 253 kts 278°
2026-04-29 20:02 51.85622 -3.77512 14808 ft 253 kts 277°
2026-04-29 20:02 51.85979 -3.80305 15037 ft 254 kts 278°
2026-04-29 20:02 51.86337 -3.83107 15234 ft 256 kts 278°
2026-04-29 20:02 51.86573 -3.84959 15382 ft 256 kts 278°
2026-04-29 20:03 51.87056 -3.88745 15683 ft 257 kts 277°
2026-04-29 20:03 51.87415 -3.91569 15868 ft 259 kts 277°
2026-04-29 20:03 51.87777 -3.94418 16099 ft 259 kts 277°
2026-04-29 20:03 51.88144 -3.97319 16274 ft 262 kts 277°
2026-04-29 20:04 51.88504 -4.00159 16532 ft 261 kts 277°
2026-04-29 20:04 51.88868 -4.03049 16722 ft 262 kts 277°
2026-04-29 20:04 51.89232 -4.05938 16932 ft 263 kts 277°
2026-04-29 20:04 51.89597 -4.08836 17119 ft 265 kts 277°
2026-04-29 20:05 51.89961 -4.11738 17315 ft 266 kts 277°
2026-04-29 20:05 51.90331 -4.14693 17507 ft 267 kts 277°
2026-04-29 20:05 51.90701 -4.17658 17695 ft 269 kts 277°
2026-04-29 20:05 51.91068 -4.20605 17893 ft 270 kts 277°
2026-04-29 20:06 51.91440 -4.23595 18082 ft 271 kts 277°
2026-04-29 20:06 51.91813 -4.26591 18281 ft 272 kts 277°
2026-04-29 20:06 51.92181 -4.29564 18488 ft 272 kts 277°
2026-04-29 20:06 51.92552 -4.32565 18690 ft 273 kts 277°
2026-04-29 20:07 51.92923 -4.35575 18894 ft 274 kts 277°
2026-04-29 20:07 51.93296 -4.38598 19097 ft 274 kts 277°
2026-04-29 20:07 51.93666 -4.41610 19294 ft 275 kts 277°
2026-04-29 20:07 51.94040 -4.44671 19483 ft 276 kts 277°
2026-04-29 20:08 51.94414 -4.47735 19662 ft 278 kts 276°
2026-04-29 20:08 51.94661 -4.49755 19819 ft 277 kts 277°
2026-04-29 20:08 51.95160 -4.53863 19956 ft 284 kts 277°
2026-04-29 20:08 51.95546 -4.57061 20037 ft 289 kts 277°
2026-04-29 20:09 51.95932 -4.60251 20138 ft 294 kts 277°
2026-04-29 20:09 51.96326 -4.63526 20173 ft 302 kts 277°
2026-04-29 20:09 51.96735 -4.66925 20180 ft 310 kts 276°
2026-04-29 20:09 51.97149 -4.70379 20176 ft 317 kts 276°
2026-04-29 20:10 51.97573 -4.73925 20180 ft 322 kts 276°
2026-04-29 20:10 51.97996 -4.77476 20171 ft 323 kts 276°
2026-04-29 20:10 51.98425 -4.81070 20170 ft 327 kts 276°
2026-04-29 20:10 51.98855 -4.84681 20174 ft 331 kts 276°
2026-04-29 20:11 51.99294 -4.88377 20176 ft 334 kts 276°
2026-04-29 20:11 51.99730 -4.92066 20176 ft 336 kts 276°
2026-04-29 20:11 52.00167 -4.95768 20180 ft 338 kts 276°
2026-04-29 20:11 52.00611 -4.99537 20177 ft 340 kts 277°
2026-04-29 20:12 52.01054 -5.03313 20175 ft 342 kts 276°
2026-04-29 20:12 52.01495 -5.07084 20173 ft 343 kts 276°
2026-04-29 20:12 52.01940 -5.10900 20175 ft 344 kts 276°
2026-04-29 20:12 52.02383 -5.14707 20172 ft 345 kts 276°
2026-04-29 20:13 52.02806 -5.18519 20170 ft 345 kts 274°
2026-04-29 20:13 52.02867 -5.21069 20167 ft 339 kts 262°
2026-04-29 20:13 52.02544 -5.26116 20182 ft 337 kts 257°
2026-04-29 20:13 52.02271 -5.29884 20179 ft 337 kts 257°
2026-04-29 20:14 52.01997 -5.33667 20176 ft 338 kts 257°
2026-04-29 20:14 52.01723 -5.37454 20172 ft 339 kts 257°
2026-04-29 20:14 52.01450 -5.41241 20174 ft 339 kts 257°
2026-04-29 20:14 52.01181 -5.44983 20178 ft 339 kts 257°
2026-04-29 20:15 52.00908 -5.48781 20176 ft 339 kts 257°
2026-04-29 20:15 52.00635 -5.52568 20173 ft 339 kts 257°
2026-04-29 20:15 52.00362 -5.56363 20177 ft 339 kts 257°
2026-04-29 20:15 52.00085 -5.60189 20181 ft 339 kts 257°
2026-04-29 20:16 51.99810 -5.63977 20183 ft 339 kts 257°
2026-04-29 20:16 51.99536 -5.67739 20178 ft 339 kts 257°
2026-04-29 20:16 51.99260 -5.71514 20174 ft 339 kts 257°
2026-04-29 20:16 51.98980 -5.75325 20168 ft 339 kts 256°
2026-04-29 20:17 51.98700 -5.79115 20171 ft 339 kts 257°
2026-04-29 20:17 51.98422 -5.82869 20169 ft 339 kts 256°
2026-04-29 20:17 51.98139 -5.86673 20168 ft 339 kts 257°
2026-04-29 20:17 51.97856 -5.90459 20170 ft 339 kts 257°
2026-04-29 20:18 51.97573 -5.94238 20177 ft 338 kts 256°
2026-04-29 20:18 51.97288 -5.98017 20176 ft 338 kts 256°
2026-04-29 20:18 51.97003 -6.01786 20172 ft 338 kts 256°
2026-04-29 20:18 51.96715 -6.05568 20172 ft 338 kts 256°
2026-04-29 20:19 51.96429 -6.09325 20182 ft 338 kts 256°
2026-04-29 20:19 51.96139 -6.13100 20174 ft 338 kts 256°
2026-04-29 20:19 51.95849 -6.16875 20179 ft 338 kts 256°
2026-04-29 20:19 51.95555 -6.20661 20165 ft 338 kts 256°
2026-04-29 20:20 51.95266 -6.24398 20173 ft 338 kts 256°
2026-04-29 20:20 51.95061 -6.28187 20176 ft 340 kts 260°
2026-04-29 20:20 51.94919 -6.32019 20178 ft 341 kts 261°
2026-04-29 20:20 51.94776 -6.35846 20172 ft 341 kts 261°
2026-04-29 20:21 51.94629 -6.39693 20167 ft 341 kts 260°
2026-04-29 20:21 51.94477 -6.43519 20166 ft 341 kts 261°
2026-04-29 20:21 51.94325 -6.47309 20170 ft 341 kts 260°
2026-04-29 20:21 51.94167 -6.51157 20172 ft 341 kts 260°
2026-04-29 20:22 51.94006 -6.55013 20164 ft 342 kts 260°
2026-04-29 20:22 51.93845 -6.58808 20165 ft 342 kts 260°
2026-04-29 20:22 51.93682 -6.62620 20160 ft 342 kts 260°
2026-04-29 20:22 51.93516 -6.66477 20164 ft 341 kts 259°
2026-04-29 20:23 51.93350 -6.70292 20169 ft 341 kts 259°
2026-04-29 20:23 51.93182 -6.74114 20169 ft 340 kts 259°
2026-04-29 20:23 51.93012 -6.77936 20156 ft 341 kts 259°
2026-04-29 20:23 51.92841 -6.81759 20168 ft 340 kts 259°
2026-04-29 20:24 51.92669 -6.85557 20163 ft 340 kts 259°
2026-04-29 20:24 51.92497 -6.89355 20164 ft 340 kts 259°
2026-04-29 20:24 51.92322 -6.93169 20170 ft 340 kts 259°
2026-04-29 20:24 51.92146 -6.96983 20166 ft 339 kts 259°
2026-04-29 20:25 51.91969 -7.00781 20170 ft 340 kts 259°
2026-04-29 20:25 51.91790 -7.04608 20173 ft 340 kts 259°
2026-04-29 20:25 51.91613 -7.08364 20155 ft 334 kts 259°
2026-04-29 20:25 51.91444 -7.12002 20049 ft 316 kts 258°
2026-04-29 20:26 51.91266 -7.15591 19313 ft 322 kts 258°
2026-04-29 20:26 51.91090 -7.19146 18731 ft 323 kts 258°
2026-04-29 20:26 51.90910 -7.22787 18191 ft 322 kts 258°
2026-04-29 20:26 51.90734 -7.26349 17735 ft 318 kts 259°
2026-04-29 20:27 51.90563 -7.29859 17377 ft 312 kts 259°
2026-04-29 20:27 51.90448 -7.32183 17061 ft 311 kts 259°
2026-04-29 20:27 51.90216 -7.36815 16410 ft 309 kts 260°
2026-04-29 20:27 51.90043 -7.40264 15911 ft 308 kts 260°
2026-04-29 20:28 51.89870 -7.43678 15426 ft 307 kts 261°
2026-04-29 20:28 51.89697 -7.47098 14943 ft 306 kts 261°
2026-04-29 20:28 51.89523 -7.50512 14448 ft 305 kts 261°
2026-04-29 20:28 51.89349 -7.53916 13960 ft 303 kts 262°
2026-04-29 20:29 51.89175 -7.57304 13457 ft 302 kts 262°
2026-04-29 20:29 51.89000 -7.60680 12960 ft 301 kts 262°
2026-04-29 20:29 51.88825 -7.64053 12459 ft 300 kts 262°
2026-04-29 20:29 51.88651 -7.67385 11964 ft 299 kts 262°
2026-04-29 20:30 51.88475 -7.70730 11462 ft 297 kts 262°
2026-04-29 20:30 51.88302 -7.74011 10965 ft 296 kts 262°
2026-04-29 20:30 51.88126 -7.77335 10459 ft 295 kts 262°
2026-04-29 20:30 51.87927 -7.80570 9964 ft 292 kts 257°
2026-04-29 20:31 51.87174 -7.83507 9443 ft 280 kts 229°
2026-04-29 20:31 51.85984 -7.85940 8957 ft 276 kts 225°
2026-04-29 20:31 51.84756 -7.88335 8450 ft 275 kts 224°
2026-04-29 20:31 51.83549 -7.90675 7848 ft 276 kts 225°
2026-04-29 20:32 51.82310 -7.93075 7215 ft 277 kts 225°
2026-04-29 20:32 51.81098 -7.95425 6593 ft 278 kts 225°
2026-04-29 20:32 51.79866 -7.97816 5954 ft 278 kts 225°
2026-04-29 20:32 51.78637 -8.00203 5335 ft 277 kts 225°
2026-04-29 20:33 51.77409 -8.02585 4715 ft 277 kts 224°
2026-04-29 20:33 51.76188 -8.04956 4086 ft 276 kts 224°
2026-04-29 20:33 51.74971 -8.07315 3459 ft 275 kts 224°
2026-04-29 20:33 51.73770 -8.09648 3105 ft 263 kts 224°
2026-04-29 20:34 51.72643 -8.11843 2991 ft 243 kts 223°
2026-04-29 20:34 51.71621 -8.13835 2945 ft 221 kts 223°
2026-04-29 20:34 51.70689 -8.15652 2926 ft 197 kts 221°
2026-04-29 20:34 51.69877 -8.17236 2904 ft 171 kts 220°
2026-04-29 20:35 51.69123 -8.18702 2959 ft 173 kts 220°
2026-04-29 20:35 51.68385 -8.20297 2989 ft 186 kts 233°
2026-04-29 20:35 51.67869 -8.22287 2981 ft 198 kts 245°
2026-04-29 20:35 51.67407 -8.24405 2975 ft 206 kts 245°
2026-04-29 20:36 51.66918 -8.26647 2979 ft 214 kts 246°
2026-04-29 20:36 51.66419 -8.28921 2971 ft 219 kts 246°
2026-04-29 20:36 51.65901 -8.31254 2958 ft 220 kts 246°
2026-04-29 20:36 51.65389 -8.33552 2961 ft 221 kts 246°
2026-04-29 20:37 51.65161 -8.36027 2933 ft 226 kts 279°
2026-04-29 20:37 51.65909 -8.38088 2942 ft 210 kts 329°
2026-04-29 20:37 51.67166 -8.39108 2967 ft 200 kts 349°
2026-04-29 20:37 51.68458 -8.39891 2955 ft 197 kts 351°
2026-04-29 20:38 51.69739 -8.40627 2955 ft 191 kts 351°
2026-04-29 20:38 51.70962 -8.41329 2952 ft 187 kts 351°
2026-04-29 20:38 51.72180 -8.42036 2864 ft 186 kts 351°
2026-04-29 20:38 51.73425 -8.42754 2586 ft 192 kts 351°
2026-04-29 20:39 51.74686 -8.43491 2300 ft 192 kts 350°
2026-04-29 20:39 51.75912 -8.44235 2020 ft 186 kts 350°
2026-04-29 20:39 51.77095 -8.44953 1756 ft 177 kts 350°
2026-04-29 20:39 51.78220 -8.45625 1527 ft 169 kts 349°
2026-04-29 20:40 51.79311 -8.46269 1296 ft 161 kts 349°
2026-04-29 20:40 51.80331 -8.46873 1096 ft 150 kts 348°
2026-04-29 20:40 51.81302 -8.47457 911 ft 152 kts 343°
2026-04-29 20:40 51.82275 -8.48075 697 ft 149 kts 348°
2026-04-29 20:41 51.83237 -8.48597 516 ft 142 kts 342°
2026-04-29 20:41 51.84100 -8.49100 480 ft 118 kts 345°
2026-04-29 20:41 51.84623 -8.49402 494 ft 47 kts 340°
2026-04-29 20:41 51.84786 -8.49385 499 ft 11 kts 70°
2026-04-29 20:42 51.84787 -8.49378 499 ft 0 kts 70°
2026-04-29 20:42 51.84806 -8.49273 503 ft 19 kts 79°
2026-04-29 20:42 51.84841 -8.49077 512 ft 14 kts 70°
2026-04-29 20:43 51.84845 -8.49061 513 ft 0 kts 70°